Weather History for KIRS - October, 2013

Change the Weather History Date:

Thursday, October 3, 2013

  Actual Average (KHAI) Record (KHAI)
Temperature  
Mean Temperature 66 °F -  
Max Temperature 75 °F 69 °F - (-1)
Min Temperature 57 °F 44 °F - (-1)
Cooling Degree Days 1    
Growing Degree Days 16 (Base 50)    
Moisture  
Dew Point 62 °F    
Average Humidity 86    
Maximum Humidity 100    
Minimum Humidity 64    
Precipitation  
Precipitation 0.00 in - - ()
Sea Level Pressure  
Sea Level Pressure 29.99 in    
Wind  
Wind Speed 3 mph (SSW)    
Max Wind Speed 14 mph    
Max Gust Speed 17 mph    
Visibility 7 miles    
Events Rain    
Averages and records for this station are not official NWS values.
T = Trace of Precipitation, MM = Missing Value Source: NWS Daily Summary

Daily Weather History Graph

Daily Weather History Graph

Search for Another Location

Airport or City:

Trip Planner

Search our weather history database for the weather conditions in past years. The results will help you decide how hot, cold, wet, or windy it might be!

Date:

Astronomy

Oct. 03, 2013 Rise Set
Actual Time 7:41 AM EDT 7:19 PM EDT
Civil Twilight 7:13 AM EDT 7:47 PM EDT
Nautical Twilight 6:41 AM EDT 8:19 PM EDT
Astronomical Twilight 6:08 AM EDT 8:52 PM EDT
Moon 6:12 AM EDT (10/3) 6:28 PM EDT (10/3)
Length of Visible Light 12h 34m
Length of Day
11h 38m
Waning Crescent, 2% of the Moon is Illuminated
Oct 3
Waning Crescent
Oct 4
New
Oct 11
First Quarter
Oct 18
Full
Oct 26
Last Quarter

Hourly Weather History & Observations

Time (EDT) Temp. Dew Point Humidity Pressure Visibility Wind Dir Wind Speed Gust Speed Precip Events Conditions
12:15 AM 62.6 °F 51.8 °F 68% 30.05 in 10.0 mi Calm Calm - N/A   Mostly Cloudy
12:34 AM 64.4 °F 51.8 °F 64% 30.04 in 10.0 mi East 3.5 mph - N/A   Scattered Clouds
12:55 AM 64.4 °F 51.8 °F 64% 30.04 in 10.0 mi ESE 4.6 mph - N/A   Scattered Clouds
1:15 AM 64.4 °F 51.8 °F 64% 30.03 in 10.0 mi Calm Calm - N/A   Mostly Cloudy
1:34 AM 64.4 °F 51.8 °F 64% 30.03 in 10.0 mi Calm Calm - N/A   Scattered Clouds
1:55 AM 64.4 °F 51.8 °F 64% 30.03 in 10.0 mi Calm Calm - N/A   Clear
2:15 AM 64.4 °F 51.8 °F 64% 30.03 in 10.0 mi Calm Calm - N/A   Clear
2:35 AM 62.6 °F 51.8 °F 68% 30.03 in 10.0 mi Calm Calm - N/A   Clear
2:54 AM 62.6 °F 51.8 °F 68% 30.03 in 10.0 mi Calm Calm - N/A   Clear
3:14 AM 62.6 °F 51.8 °F 68% 30.02 in 10.0 mi Calm Calm - N/A   Clear
3:35 AM 62.6 °F 53.6 °F 72% 30.02 in 10.0 mi Calm Calm - N/A   Clear
3:54 AM 60.8 °F 53.6 °F 77% 30.02 in 10.0 mi Calm Calm - N/A   Clear
4:14 AM 60.8 °F 53.6 °F 77% 30.01 in 10.0 mi Calm Calm - N/A   Clear
4:35 AM 59.0 °F 53.6 °F 82% 30.02 in 10.0 mi Calm Calm - N/A   Clear
4:55 AM 57.2 °F 53.6 °F 88% 30.03 in 10.0 mi Calm Calm - N/A   Clear
5:14 AM 59.0 °F 55.4 °F 88% 30.02 in 10.0 mi Calm Calm - N/A   Clear
5:35 AM 59.0 °F 57.2 °F 94% 30.01 in 7.0 mi Calm Calm - N/A   Clear
5:54 AM 59.0 °F 57.2 °F 94% 30.01 in 7.0 mi Calm Calm - N/A   Clear
6:14 AM 57.2 °F 57.2 °F 100% 30.01 in 5.0 mi Calm Calm - N/A   Clear
6:35 AM 59.0 °F 57.2 °F 94% 30.02 in 4.0 mi Calm Calm - N/A   Scattered Clouds
6:54 AM 60.8 °F 60.8 °F 100% 30.02 in 3.0 mi Calm Calm - N/A   Scattered Clouds
7:15 AM 62.6 °F 60.8 °F 94% 30.01 in 3.0 mi Calm Calm - N/A   Scattered Clouds
7:35 AM 62.6 °F 60.8 °F 94% 30.01 in 2.0 mi Calm Calm - N/A   Mostly Cloudy
7:55 AM 60.8 °F 60.8 °F 100% 30.01 in 2.0 mi Calm Calm - N/A   Clear
8:14 AM 60.8 °F 60.8 °F 100% 30.02 in 2.0 mi Calm Calm - N/A   Mostly Cloudy
8:35 AM 62.6 °F 62.6 °F 100% 30.02 in 2.5 mi Calm Calm - N/A   Mostly Cloudy
8:55 AM 64.4 °F 62.6 °F 94% 30.02 in 2.5 mi Calm Calm - N/A   Overcast
9:14 AM 64.4 °F 62.6 °F 94% 30.03 in 2.0 mi Calm Calm - N/A   Overcast
9:35 AM 64.4 °F 64.4 °F 100% 30.02 in 2.0 mi SSE 4.6 mph - N/A   Overcast
9:55 AM 66.2 °F 64.4 °F 94% 30.02 in 2.0 mi South 4.6 mph - N/A   Overcast
10:14 AM 66.2 °F 66.2 °F 100% 30.02 in 2.0 mi South 5.8 mph - N/A   Overcast
10:35 AM 68.0 °F 66.2 °F 94% 30.01 in 2.5 mi SSW 5.8 mph - N/A   Overcast
10:55 AM 69.8 °F 66.2 °F 88% 30.02 in 2.5 mi SSW 8.1 mph - N/A   Overcast
11:14 AM 68.0 °F 66.2 °F 94% 30.03 in 3.0 mi SSW 10.4 mph - N/A   Overcast
11:35 AM 69.8 °F 66.2 °F 88% 30.02 in 4.0 mi SW 10.4 mph - N/A   Overcast
11:55 AM 69.8 °F 66.2 °F 88% 30.01 in 4.0 mi SSW 11.5 mph - N/A   Mostly Cloudy
12:14 PM 69.8 °F 66.2 °F 88% 30.01 in 5.0 mi SSW 13.8 mph 17.3 mph N/A   Mostly Cloudy
12:35 PM 71.6 °F 66.2 °F 83% 30.01 in 5.0 mi SSW 11.5 mph - N/A   Mostly Cloudy
12:55 PM 69.8 °F 66.2 °F 88% 30.01 in 7.0 mi SW 12.7 mph - N/A Rain Light Rain
1:14 PM 69.8 °F 66.2 °F 88% 30.01 in 5.0 mi SSW 11.5 mph - N/A   Light Drizzle
1:35 PM 68.0 °F 66.2 °F 94% 30.00 in 4.0 mi SSW 9.2 mph - N/A Rain Rain
1:55 PM 68.0 °F 66.2 °F 94% 30.00 in 2.5 mi SSW 10.4 mph - N/A Rain Rain
2:14 PM 68.0 °F 66.2 °F 94% 30.00 in 4.0 mi WSW 6.9 mph - N/A Rain Light Rain
2:35 PM 68.0 °F 66.2 °F 94% 30.00 in 1.8 mi WSW 8.1 mph - N/A Rain Light Rain
2:54 PM 69.8 °F 68.0 °F 94% 29.99 in 4.0 mi WSW 9.2 mph - N/A Rain Light Rain
3:14 PM 69.8 °F 68.0 °F 94% 29.97 in 4.0 mi SSW 5.8 mph - N/A   Clear
3:35 PM 71.6 °F 69.8 °F 94% 29.96 in 7.0 mi SSW 8.1 mph - N/A   Clear
3:54 PM 71.6 °F 69.8 °F 94% 29.96 in 7.0 mi SSW 10.4 mph - N/A   Scattered Clouds
4:14 PM 71.6 °F 69.8 °F 94% 29.95 in 10.0 mi SW 10.4 mph - N/A   Scattered Clouds
4:35 PM 73.4 °F 69.8 °F 88% 29.95 in 10.0 mi SW 10.4 mph - N/A   Clear
4:54 PM 73.4 °F 68.0 °F 83% 29.94 in 10.0 mi SW 12.7 mph 16.1 mph N/A   Clear
5:14 PM 73.4 °F 66.2 °F 78% 29.94 in 10.0 mi SW 12.7 mph - N/A   Scattered Clouds
5:35 PM 75.2 °F 66.2 °F 73% 29.94 in 10.0 mi SSW 13.8 mph - N/A   Scattered Clouds
5:54 PM 73.4 °F 66.2 °F 78% 29.94 in 10.0 mi SSW 12.7 mph - N/A   Scattered Clouds
6:14 PM 73.4 °F 66.2 °F 78% 29.93 in 10.0 mi SSW 10.4 mph - N/A   Mostly Cloudy
6:35 PM 73.4 °F 66.2 °F 78% 29.93 in 10.0 mi SSW 6.9 mph - N/A   Scattered Clouds
6:54 PM 71.6 °F 66.2 °F 83% 29.93 in 10.0 mi South 5.8 mph - N/A   Clear
7:14 PM 71.6 °F 66.2 °F 83% 29.94 in 10.0 mi South 3.5 mph - N/A   Clear
7:35 PM 69.8 °F 66.2 °F 88% 29.95 in 10.0 mi South 4.6 mph - N/A   Clear
7:54 PM 68.0 °F 64.4 °F 88% 29.95 in 10.0 mi Calm Calm - N/A   Clear
8:14 PM 68.0 °F 64.4 °F 88% 29.95 in 7.0 mi Calm Calm - N/A   Clear
8:35 PM 68.0 °F 64.4 °F 88% 29.95 in 10.0 mi SSE 3.5 mph - N/A   Clear
8:54 PM 69.8 °F 64.4 °F 83% 29.96 in 10.0 mi South 4.6 mph - N/A   Clear
9:14 PM 69.8 °F 64.4 °F 83% 29.96 in 10.0 mi South 4.6 mph - N/A   Clear
9:35 PM 69.8 °F 64.4 °F 83% 29.96 in 10.0 mi SSE 6.9 mph - N/A   Scattered Clouds
9:54 PM 69.8 °F 64.4 °F 83% 29.97 in 10.0 mi SW 6.9 mph - N/A Rain Rain
10:14 PM 68.0 °F 64.4 °F 88% 29.96 in 10.0 mi South 10.4 mph - N/A Rain Rain
10:35 PM 66.2 °F 64.4 °F 94% 29.97 in 10.0 mi SSW 9.2 mph - N/A Rain Light Rain
10:55 PM 64.4 °F 62.6 °F 94% 29.98 in 10.0 mi SSW 9.2 mph - N/A   Mostly Cloudy
11:15 PM 64.4 °F 62.6 °F 94% 29.98 in 10.0 mi Calm Calm - N/A   Mostly Cloudy
11:34 PM 64.4 °F 62.6 °F 94% 29.98 in 10.0 mi Calm Calm - N/A   Mostly Cloudy